Regional Weather Roundup
Issued by NWS Memphis, TN

Home | Current Version | Previous Version | Text Only | Print | Product List | Glossary On
Versions: 1 2 3 4 5 6 7 8 9 10 11 12 13 14 15 16 17 18 19 20 21 22 23 24 25 26 27 28 29 30 31 32 33 34 35 36 37 38 39 40 41 42 43 44 45 46 47 48 49 50
000
ASUS44 KMEG 040510
RWRMEG
MEMPHIS CWA HOURLY WEATHER ROUNDUP
NATIONAL WEATHER SERVICE MEMPHIS TN
1200 AM CDT SAT JUL 04 2015

...WEST TENNESSEE...

CITY           SKY/WX    TMP DP  RH WIND       PRES   REMARKS
MEMPHIS INTL   CLOUDY    73  70  90 SW3       29.93F
NWS MEMPHIS      N/A     72 N/A N/A MISG        N/A
JACKSON        LGT RAIN  73  70  90 SW9       29.93S
LEXINGTON      CLOUDY    72  70  94 CALM      29.92F
DYERSBURG        N/A    N/A N/A N/A MISG        N/A
PARIS          PTCLDY    66  66 100 CALM      29.93F


...EASTERN ARKANSAS...

CITY           SKY/WX    TMP DP  RH WIND       PRES   REMARKS
JONESBORO      MOCLDY    71  70  96 W3        29.91S
WEST MEMPHIS   CLOUDY    72  72 100 S3        29.92S
BATESVILLE     MOCLDY    70  66  88 N3        29.93S
NEWPORT        CLOUDY    73  72  97 CALM      29.93S
WALNUT RIDGE   PTCLDY    72  70  94 SW5       29.91S
BLYTHEVILLE    MOCLDY    74  73  97 CALM      29.92R
SEARCY         CLOUDY    73  71  93 SW3       29.93R
STUTTGART      CLOUDY    75  72  88 NW12      29.90R
PINE BLUFF     CLOUDY    76  74  93 SW6       29.92F
MONTICELLO     CLOUDY    77  75  93 SW6       29.93F


...NORTH MISSISSIPPI...

CITY           SKY/WX    TMP DP  RH WIND       PRES   REMARKS
TUPELO         CLOUDY    70  68  93 CALM      29.96S
OLIVE BRANCH     N/A     70 N/A N/A S3        29.94F
TUNICA         CLOUDY    72  70  94 CALM      29.94F
CLARKSDALE     CLOUDY    72  72 100 SE3       29.94F
CORINTH        MOCLDY    72  68  88 SW7       29.94S
GREENWOOD      PTCLDY    70  67  90 CALM      29.95S
COLUMBUS       CLOUDY    71  69  95 S3        29.96F
STARKVILLE     FAIR      68  68 100 CALM      29.96F
GOLDEN TRIANGL CLOUDY    70  66  88 S6        29.96F


...SOUTHEAST MISSOURI...

CITY           SKY/WX    TMP DP  RH WIND       PRES   REMARKS
WEST PLAINS    CLEAR     69  66  90 N5        29.96F
POPLAR BLUFF   PTCLDY    71  69  93 NW5       29.91S
CAPE GIRARDEAU CLEAR     70  69  97 CALM      29.92R


...NORTHWEST ALABAMA...

CITY           SKY/WX    TMP DP  RH WIND       PRES   REMARKS
MUSCLE SHOALS  CLOUDY    71  66  84 SW7       29.97F


...MIDDLE TENNESSEE...

CITY           SKY/WX    TMP DP  RH WIND       PRES   REMARKS
NASHVILLE      MOCLDY    72  70  93 SW3       29.93F
CLARKSVILLE    MOCLDY    71  69  93 SW5       29.93R
COLUMBIA       CLOUDY    72  72 100 SW5       29.93F


...WESTERN KENTUCKY...

CITY           SKY/WX    TMP DP  RH WIND       PRES   REMARKS
PADUCAH        CLOUDY    71  68  90 CALM      29.91R
FORT CAMPBELL  MOCLDY    70  69  95 SW5       29.93R


...CENTRAL ARKANSAS...

CITY           SKY/WX    TMP DP  RH WIND       PRES   REMARKS
LITTLE ROCK    LGT RAIN  71  66  84 W8        29.91F


SKY/WX REPORTED AS FAIR MEANS FEW OR NO CLOUDS BELOW
12 THOUSAND FEET.




USA.gov is the U.S. government's official web portal to all federal, state and local government web resources and services.